Location: Berg
(47.2344°N, 9.5296°E)
Time: 10:30:57
(UTC+00:00)

Nauka - Visible Passes

Search period start: 17 September 2021 00:00
Search period end: 27 September 2021 00:00
Orbit: 419 x 423 km, 51.6° (Epoch: 16 September)

Date Brightness Start Highest point End Pass type
(mag) Time Alt. Az. Time Alt. Az. Time Alt. Az.
17 Sep ? 18:03:30 10° S 18:05:43 16° SE 18:07:55 10° E visible
17 Sep ? 19:38:47 10° WSW 19:41:04 40° WSW 19:41:04 40° WSW visible
18 Sep ? 18:51:58 10° SW 18:55:17 59° SSE 18:56:29 35° E visible
18 Sep ? 20:29:00 10° W 20:29:30 13° W 20:29:30 13° W visible
19 Sep ? 18:05:18 10° SW 18:08:28 39° SE 18:11:39 10° ENE visible
19 Sep ? 19:41:58 10° W 19:44:44 46° NW 19:44:44 46° NW visible
20 Sep ? 18:54:58 10° WSW 18:58:20 68° NNW 18:59:50 30° NE visible
20 Sep ? 20:32:20 10° WNW 20:32:50 13° WNW 20:32:50 13° WNW visible
21 Sep ? 18:08:01 10° WSW 18:11:24 89° SSE 18:14:48 10° ENE visible
21 Sep ? 19:45:18 10° WNW 19:47:50 34° NW 19:47:50 34° NW visible
22 Sep ? 18:58:15 10° W 19:01:29 43° N 19:02:46 29° NE visible
22 Sep ? 20:35:33 10° WNW 20:35:46 11° WNW 20:35:46 11° WNW visible
23 Sep ? 18:11:12 10° W 18:14:29 51° NNW 18:17:38 11° ENE visible
23 Sep ? 19:48:34 10° WNW 19:50:38 28° NW 19:50:38 28° NW visible
24 Sep ? 19:01:33 10° WNW 19:04:43 37° N 19:05:28 32° NNE visible
25 Sep ? 18:14:30 10° WNW 18:17:41 38° N 18:20:17 14° ENE visible
25 Sep ? 19:51:39 10° WNW 19:53:16 25° NW 19:53:16 25° NW visible
26 Sep ? 19:04:41 10° WNW 19:07:56 42° N 19:08:05 41° NNE visible
